Regional Weather Roundup
Issued by NWS

Home | Current Version | Previous Version | Text Only | Print | Product List | Glossary On
Versions: 1 2 3 4 5 6 7 8 9 10 11 12 13 14 15 16 17 18 19 20 21 22 23 24 25 26 27 28 29 30 31 32 33 34 35 36 37 38 39 40 41 42 43 44 45 46 47 48 49 50
000
ASUS43 KIND 282209
RWRIN

WEATHER ROUNDUP FOR INDIANA
NATIONAL WEATHER SERVICE INDIANAPOLIS IN
500 PM EST FRI NOV 28 2014

NOTE: "FAIR" INDICATES FEW OR NO CLOUDS BELOW 12,000 FEET WITH NO
SIGNIFICANT WEATHER AND/OR OBSTRUCTIONS TO VISIBILITY.

* - STATION DOES NOT REPORT WEATHER SUCH AS PRECIPITATION OR FOG.

+ - STATION NOT QUALITY CONTROLLED BY THE NATIONAL WEATHER SERVICE.
    USE DATA WITH CAUTION...ESPECIALLY DEWPOINT AND RELATIVE
    HUMIDITY OBSERVATIONS.

INZ001>003-010>013-019-020-282300-
NORTHWEST INDIANA

CITY           SKY/WX    TMP DP  RH WIND       PRES   REMARKS
GARY /AIRPORT/ CLOUDY    32  21  64 SE12      30.02F WCI  23
KNOX *+        CLOUDY    30  21  68 S15       30.04F WCI  19
LA PORTE +     CLOUDY    31  22  69 S10G16    30.04F WCI  23
MICHIGAN CITY+ CLOUDY    30  19  64 SE9       30.03F WCI  22
MONTICELLO +   CLOUDY    32  22  67 S12G18    30.04F WCI  23
RENSSELAER +   CLOUDY    32  28  86 SE9       30.04R WCI  24
VALPARAISO     CLOUDY    30  20  66 SE12G22   30.03F WCI  20

$$

LMZ046-743>745-282300-
SOUTHERN LAKE MICHIGAN

STATION/POSITION TIME  TEMP WIND        PRES
                       AIR  DIR/SP/G
                 (UTC) (F)  (DEG/KT/KT) (MB)
MICHIGAN CITY    2200   30  130/ 15/ 24   N/A

$$

INZ004-005-014>016-021>024-282300-
NORTH CENTRAL INDIANA

CITY           SKY/WX    TMP DP  RH WIND       PRES   REMARKS
GOSHEN         MOCLDY    29  20  69 SE12      30.06F WCI  19
LOGANSPORT +   CLOUDY    30  21  69 SE15G23   30.07F WCI  19
PERU/GRISSOM   CLOUDY    30  24  77 S13G22    30.06F WCI  20
ROCHESTER +    CLOUDY    32  23  69 SE10G17   30.07F WCI  24
SOUTH BEND     CLOUDY    29  20  69 SE14      30.05F WCI  18
WARSAW +       CLOUDY    30  21  69 SE7       30.06F WCI  23

$$

INZ006>009-017-018-025>027-282300-
NORTHEAST INDIANA

CITY           SKY/WX    TMP DP  RH WIND       PRES   REMARKS
ANGOLA *+      PTCLDY    27  10  50 SE9       30.08F WCI  17
AUBURN +       CLOUDY    30  19  64 SE5       30.11F WCI  25
FORT WAYNE     CLOUDY    30  19  63 SE14      30.12F WCI  19
HUNTINGTON +   CLOUDY    30  18  60 SE8       30.09F WCI  23

$$

INZ028-029-035-036-043>045-051>053-282300-
WEST CENTRAL INDIANA

CITY           SKY/WX    TMP DP  RH WIND       PRES   REMARKS
CRAWFORDSVL +  PTCLDY    32  23  69 SE13      30.06  WCI  22
GREENCASTLE +  CLEAR     34  25  69 S12       30.09F WCI  25
LAFAYETTE      MOCLDY    33  23  66 S9        30.04F WCI  25
TERRE HAUTE    CLEAR     37  27  67 S14       30.08F

$$

INZ030>032-037>040-046>048-054>057-064-065-282300-
CENTRAL INDIANA

CITY           SKY/WX    TMP DP  RH WIND       PRES   REMARKS
CP ATTERBURY + PTCLDY    34  23  64 S13       30.14F WCI  25
COLUMBUS       PTCLDY    34  21  60 S16       30.15F WCI  23
FRANKFORT +    CLOUDY    32  24  70 SE13      30.07F WCI  23
GREENWOOD *+   MOCLDY    34  19  55 SE12G20   30.12  WCI  25
INDIANAPOLIS   MOCLDY    33  21  61 SE15      30.09F WCI  23
-EAGLE CREEK   MOCLDY    33  20  58 S13G20    30.09F WCI  24
KOKOMO *+      CLOUDY    30  21  69 S16       30.07F WCI  19
MARION +         N/A     31  20  63 S14G22    30.09F WCI  20
MT COMFORT *+  CLOUDY    32  14  47 S15       30.11F WCI  22
SHELBYVILLE    MOCLDY    34  22  61 S15       30.13F WCI  24
ZIONSVILLE +   CLOUDY    32  20  62 SE14G21   30.09F WCI  22

$$

INZ033-034-041-042-049-050-058-059-282300-
EAST CENTRAL INDIANA

CITY           SKY/WX    TMP DP  RH WIND       PRES   REMARKS
MUNCIE         CLOUDY    32  19  58 S13       30.11F WCI  22

$$

INZ060-061-067>069-081>083-085>088-282300-
SOUTHWEST INDIANA

CITY           SKY/WX    TMP DP  RH WIND       PRES   REMARKS
EVANSVILLE     CLEAR     44  26  49 S10       30.12F
HUNTINGBURG *+ CLEAR     39  25  56 S12G20    30.14F
WASHINGTON +   CLEAR     39  29  67 S14       30.11F

$$

INZ062-063-066-070>080-084-089>092-282300-
SOUTH CENTRAL AND SOUTHEAST INDIANA

CITY           SKY/WX    TMP DP  RH WIND       PRES   REMARKS
BLOOMINGTON    CLEAR     37  24  59 S9        30.11F
NORTH VERNON + PTCLDY    36  19  51 SE13      30.16
SEYMOUR +      PTCLDY    37  23  56 SE10      30.16

$$




USA.gov is the U.S. government's official web portal to all federal, state and local government web resources and services.